Weather in Kamyshino

Russia / Novosibirsk Oblast     54°14′24″N   77°07′22″E
temp.,
°C
wind,
m/s
gust,
m/s
humid.,
%
clouds,
%
prec.,
mm/h
press.,
hPa
HPBL,
m
28 february, sun
sun2801:00−28sse449910 0.0 103556
04:00−28sse47970 0.0 103488
07:00−27se479439 0.0 1032124
10:00−24se61091100 0.0 1029233
13:00−20se6993100 0.0 1026277
16:00−17se71094100 0.3 1024397
19:00−14ese51193100 0.4 1020362
22:00−12e61194100 0.1 1016276
1 march, mon
mon101:00−8e61095100 0.7 1012302
04:00−6e6995100 1.8 1008343
07:00−6ene5796100 2.3 1006178
10:00−6ene3496100 1.1 1005114
13:00−3nw1497100 2.4 1006222
16:00−3n2397100 1.4 1006177
19:00−7n4596100 2.1 1008169
22:00−11nnw469593 0.3 1010169
2 march, tue
tue201:00−16nw349792 0.3 101365
04:00−18nw349896 0.0 101534
07:00−20wnw239986 0.1 101720
10:00−20w229847 0.0 101822
13:00−16wsw239263 0.1 1018239
16:00−14sw2391100 0.2 1017319
19:00−15sw119698 0.4 101720
22:00−17ssw129781 0.1 101720
3 march, wed
wed301:00−17sw229781 0.1 101620
04:00−16sw229783 0.1 101625
07:00−17sw229790 0.3 101626
10:00−16ssw239685 0.1 101692
13:00−13ssw469483 0.1 1018319
16:00−14ssw5893100 0.0 1017351
19:00−15ssw51092100 0.1 1018407
22:00−14ssw5119396 0.0 1017387
4 march, thu
thu401:00−12ssw6119497 0.1 1017409
04:00−10ssw61194100 0.6 1015424
07:00−9s61293100 0.8 1015389
10:00−8s71293100 0.1 1014428
13:00−5ssw81293100 0.3 1013612
16:00−3ssw81293100 0.3 1012677
19:00−3s71392100 0.6 1011622
22:00−4s71485100 0.1 1010442